VOE7JL LPPT-LEAS

Flight info

Callsign VOE7JL
Flight time 0h 54m
Altitude 36000
Route IXIDA DCT TOSDI DCT ZMR DCT VETAN DCT OMESI DCT ROVAK M30 XONDA
Aircraft A319/M-SDFGIJ1RWY/LB1

Departure

Time 2026-05-07 19:56
Airport Lisbon Humberto Delgado Airport (LPPT)

Arrival

Time 2026-05-07 20:51
Airport Asturias Airport (LEAS)
Time Latitude Longitude Altitude Speed Heading
2026-05-07 19:38 38.76466 -9.13678 352 ft 0 kts 167°
2026-05-07 19:49 38.76470 -9.13679 351 ft 3 kts 167°
2026-05-07 19:50 38.76497 -9.13687 340 ft 4 kts 167°
2026-05-07 19:50 38.76523 -9.13694 356 ft 4 kts 176°
2026-05-07 19:50 38.76546 -9.13690 358 ft 4 kts 243°
2026-05-07 19:50 38.76549 -9.13685 357 ft 0 kts 258°
2026-05-07 19:52 38.76548 -9.13690 357 ft 1 kts 258°
2026-05-07 19:52 38.76544 -9.13712 352 ft 4 kts 258°
2026-05-07 19:52 38.76537 -9.13754 357 ft 6 kts 258°
2026-05-07 19:53 38.76527 -9.13816 354 ft 8 kts 257°
2026-05-07 19:53 38.76517 -9.13896 351 ft 10 kts 275°
2026-05-07 19:53 38.76569 -9.13953 352 ft 11 kts 309°
2026-05-07 19:53 38.76548 -9.14042 355 ft 12 kts 233°
2026-05-07 19:54 38.76500 -9.14135 351 ft 13 kts 255°
2026-05-07 19:54 38.76517 -9.14242 351 ft 1 kts 294°
2026-05-07 19:54 38.76519 -9.14247 355 ft 1 kts 294°
2026-05-07 19:54 38.76522 -9.14257 353 ft 2 kts 294°
2026-05-07 19:55 38.76529 -9.14277 351 ft 3 kts 293°
2026-05-07 19:55 38.76540 -9.14311 353 ft 6 kts 293°
2026-05-07 19:55 38.76569 -9.14382 357 ft 11 kts 310°
2026-05-07 19:55 38.76654 -9.14380 355 ft 15 kts 18°
2026-05-07 19:56 38.76843 -9.14287 354 ft 62 kts 21°
2026-05-07 19:56 38.77478 -9.13951 356 ft 132 kts 23°
2026-05-07 19:56 38.78485 -9.13438 566 ft 164 kts 18°
2026-05-07 19:56 38.79524 -9.12880 1323 ft 161 kts 19°
2026-05-07 19:57 38.80552 -9.12322 2055 ft 161 kts 19°
2026-05-07 19:57 38.81627 -9.11696 2512 ft 181 kts 25°
2026-05-07 19:57 38.82778 -9.10814 2858 ft 204 kts 28°
2026-05-07 19:57 38.84069 -9.09812 3220 ft 229 kts 28°
2026-05-07 19:58 38.85509 -9.08695 3698 ft 254 kts 28°
2026-05-07 19:58 38.87064 -9.07489 4431 ft 267 kts 29°
2026-05-07 19:58 38.88676 -9.06234 5308 ft 275 kts 30°
2026-05-07 19:58 38.90240 -9.04775 6196 ft 282 kts 43°
2026-05-07 19:59 38.91706 -9.03050 7067 ft 288 kts 44°
2026-05-07 19:59 38.93196 -9.01301 7957 ft 293 kts 44°
2026-05-07 19:59 38.94716 -8.99520 8874 ft 298 kts 44°
2026-05-07 19:59 38.96260 -8.97716 9772 ft 302 kts 44°
2026-05-07 20:00 38.97841 -8.95866 10344 ft 318 kts 45°
2026-05-07 20:00 38.99539 -8.93880 10647 ft 342 kts 44°
2026-05-07 20:00 39.01358 -8.91752 10897 ft 365 kts 44°
2026-05-07 20:00 39.03275 -8.89516 11387 ft 377 kts 44°
2026-05-07 20:01 39.05238 -8.87231 12074 ft 383 kts 44°
2026-05-07 20:01 39.07222 -8.84916 12794 ft 388 kts 44°
2026-05-07 20:01 39.09229 -8.82569 13532 ft 392 kts 44°
2026-05-07 20:01 39.11256 -8.80194 14196 ft 396 kts 44°
2026-05-07 20:02 39.13309 -8.77784 14821 ft 401 kts 44°
2026-05-07 20:02 39.15379 -8.75354 15456 ft 405 kts 44°
2026-05-07 20:02 39.17400 -8.72810 16060 ft 408 kts 50°
2026-05-07 20:02 39.19283 -8.70053 16697 ft 412 kts 51°
2026-05-07 20:03 39.21181 -8.67270 17320 ft 416 kts 51°
2026-05-07 20:03 39.23078 -8.64490 17923 ft 420 kts 51°
2026-05-07 20:03 39.25042 -8.61608 18497 ft 424 kts 51°
2026-05-07 20:03 39.26998 -8.58733 19020 ft 428 kts 51°
2026-05-07 20:04 39.28947 -8.55868 19512 ft 432 kts 50°
2026-05-07 20:04 39.30968 -8.52901 20020 ft 436 kts 50°
2026-05-07 20:04 39.32954 -8.49983 20487 ft 440 kts 50°
2026-05-07 20:04 39.34980 -8.47004 20955 ft 444 kts 50°
2026-05-07 20:05 39.37027 -8.43987 21425 ft 448 kts 50°
2026-05-07 20:05 39.39091 -8.40942 21872 ft 452 kts 50°
2026-05-07 20:05 39.41168 -8.37874 22320 ft 456 kts 50°
2026-05-07 20:05 39.43262 -8.34776 22754 ft 459 kts 50°
2026-05-07 20:06 39.45370 -8.31653 23171 ft 463 kts 49°
2026-05-07 20:06 39.47501 -8.28491 23560 ft 468 kts 49°
2026-05-07 20:06 39.49642 -8.25310 23832 ft 471 kts 49°
2026-05-07 20:06 39.51796 -8.22109 23914 ft 471 kts 49°
2026-05-07 20:07 39.53945 -8.18918 23935 ft 472 kts 49°
2026-05-07 20:07 39.56115 -8.15693 24270 ft 475 kts 49°
2026-05-07 20:07 39.58287 -8.12461 24656 ft 477 kts 49°
2026-05-07 20:07 39.60474 -8.09207 25016 ft 480 kts 49°
2026-05-07 20:08 39.62665 -8.05937 25373 ft 482 kts 49°
2026-05-07 20:08 39.64870 -8.02638 25718 ft 485 kts 49°
2026-05-07 20:08 39.67132 -7.99385 26057 ft 487 kts 46°
2026-05-07 20:08 39.69512 -7.96241 26404 ft 489 kts 44°
2026-05-07 20:09 39.71975 -7.93187 26740 ft 491 kts 42°
2026-05-07 20:09 39.74486 -7.90166 27081 ft 493 kts 41°
2026-05-07 20:09 39.76157 -7.88164 27299 ft 494 kts 41°
2026-05-07 20:10 39.81186 -7.82012 27944 ft 498 kts 43°
2026-05-07 20:10 39.83678 -7.78869 28268 ft 500 kts 43°
2026-05-07 20:10 39.86165 -7.75691 28574 ft 502 kts 43°
2026-05-07 20:10 39.88691 -7.72453 28892 ft 503 kts 43°
2026-05-07 20:11 39.91151 -7.69303 29323 ft 502 kts 43°
2026-05-07 20:11 39.93641 -7.66121 29780 ft 501 kts 43°
2026-05-07 20:11 39.96127 -7.62956 30206 ft 499 kts 43°
2026-05-07 20:11 39.98614 -7.59798 30577 ft 498 kts 42°
2026-05-07 20:12 40.01097 -7.56638 30918 ft 499 kts 42°
2026-05-07 20:12 40.03574 -7.53473 31272 ft 499 kts 42°
2026-05-07 20:12 40.06051 -7.50302 31595 ft 499 kts 42°
2026-05-07 20:12 40.08527 -7.47128 31925 ft 499 kts 42°
2026-05-07 20:13 40.11004 -7.43950 32281 ft 499 kts 42°
2026-05-07 20:13 40.13483 -7.40766 32631 ft 499 kts 42°
2026-05-07 20:13 40.15959 -7.37583 32979 ft 499 kts 41°
2026-05-07 20:13 40.18437 -7.34400 33351 ft 499 kts 41°
2026-05-07 20:14 40.20912 -7.31225 33718 ft 499 kts 41°
2026-05-07 20:14 40.23389 -7.28042 34061 ft 499 kts 41°
2026-05-07 20:14 40.25859 -7.24862 34366 ft 499 kts 41°
2026-05-07 20:14 40.28333 -7.21673 34682 ft 500 kts 41°
2026-05-07 20:15 40.30814 -7.18472 34980 ft 500 kts 41°
2026-05-07 20:15 40.33293 -7.15269 35274 ft 501 kts 41°
2026-05-07 20:15 40.35775 -7.12058 35565 ft 501 kts 41°
2026-05-07 20:15 40.38252 -7.08847 35820 ft 502 kts 41°
2026-05-07 20:16 40.40736 -7.05619 35903 ft 503 kts 41°
2026-05-07 20:16 40.45705 -6.99155 35910 ft 502 kts 41°
2026-05-07 20:17 40.50664 -6.92694 35905 ft 502 kts 41°
2026-05-07 20:17 40.55608 -6.86232 35905 ft 501 kts 41°
2026-05-07 20:18 40.60558 -6.79769 35908 ft 501 kts 41°
2026-05-07 20:18 40.65460 -6.73349 35908 ft 500 kts 41°
2026-05-07 20:19 40.70378 -6.66875 35913 ft 500 kts 41°
2026-05-07 20:19 40.75295 -6.60391 35913 ft 500 kts 41°
2026-05-07 20:20 40.80203 -6.53910 35918 ft 499 kts 41°
2026-05-07 20:20 40.85110 -6.47427 35921 ft 498 kts 41°
2026-05-07 20:21 40.90002 -6.40946 35920 ft 498 kts 41°
2026-05-07 20:21 40.94882 -6.34455 35924 ft 498 kts 41°
2026-05-07 20:22 40.99764 -6.27974 35929 ft 497 kts 40°
2026-05-07 20:22 41.04817 -6.21766 35935 ft 494 kts 37°
2026-05-07 20:23 41.09987 -6.15788 35935 ft 493 kts 36°
2026-05-07 20:23 41.15135 -6.09779 35940 ft 493 kts 37°
2026-05-07 20:24 41.20228 -6.03684 35940 ft 492 kts 37°
2026-05-07 20:24 41.25283 -5.97552 35946 ft 492 kts 37°
2026-05-07 20:25 41.30336 -5.91437 35939 ft 491 kts 37°
2026-05-07 20:25 41.35398 -5.85341 35945 ft 490 kts 37°
2026-05-07 20:26 41.40450 -5.79246 35943 ft 490 kts 37°
2026-05-07 20:26 41.45489 -5.73128 35947 ft 490 kts 37°
2026-05-07 20:27 41.50980 -5.68049 35948 ft 474 kts 18°
2026-05-07 20:27 41.57159 -5.65599 35947 ft 456 kts 360°
2026-05-07 20:28 41.63347 -5.65767 35944 ft 440 kts 345°
2026-05-07 20:28 41.69377 -5.66846 35943 ft 440 kts 346°
2026-05-07 20:29 41.75448 -5.67908 35938 ft 440 kts 346°
2026-05-07 20:29 41.81511 -5.68977 35624 ft 436 kts 345°
2026-05-07 20:29 41.84500 -5.69501 35249 ft 431 kts 345°
2026-05-07 20:30 41.87464 -5.70023 34826 ft 429 kts 345°
2026-05-07 20:30 41.90417 -5.70544 34392 ft 428 kts 345°
2026-05-07 20:30 41.93369 -5.71067 33960 ft 428 kts 345°
2026-05-07 20:30 41.96321 -5.71594 33480 ft 428 kts 345°
2026-05-07 20:31 41.99282 -5.72123 32991 ft 430 kts 345°
2026-05-07 20:31 42.02251 -5.72657 32517 ft 431 kts 346°
2026-05-07 20:31 42.05226 -5.73193 32052 ft 432 kts 346°
2026-05-07 20:31 42.08214 -5.73728 31597 ft 434 kts 346°
2026-05-07 20:32 42.11209 -5.74263 31140 ft 435 kts 346°
2026-05-07 20:32 42.14216 -5.74799 30702 ft 437 kts 347°
2026-05-07 20:32 42.17240 -5.75336 30265 ft 438 kts 347°
2026-05-07 20:32 42.20264 -5.75875 29809 ft 440 kts 347°
2026-05-07 20:33 42.23303 -5.76421 29306 ft 441 kts 347°
2026-05-07 20:33 42.26347 -5.76972 28807 ft 442 kts 347°
2026-05-07 20:33 42.29399 -5.77527 28322 ft 443 kts 348°
2026-05-07 20:33 42.32446 -5.78078 27842 ft 440 kts 348°
2026-05-07 20:34 42.35468 -5.78622 27373 ft 437 kts 348°
2026-05-07 20:34 42.38478 -5.79161 26866 ft 434 kts 348°
2026-05-07 20:34 42.41463 -5.79696 26366 ft 431 kts 349°
2026-05-07 20:34 42.44423 -5.80229 25867 ft 428 kts 349°
2026-05-07 20:35 42.47328 -5.80754 25391 ft 425 kts 349°
2026-05-07 20:35 42.50247 -5.81283 24909 ft 422 kts 349°
2026-05-07 20:35 42.53151 -5.81808 24438 ft 420 kts 350°
2026-05-07 20:35 42.56039 -5.82331 23972 ft 417 kts 350°
2026-05-07 20:36 42.58905 -5.82851 23514 ft 414 kts 350°
2026-05-07 20:36 42.61755 -5.83368 22975 ft 412 kts 351°
2026-05-07 20:36 42.64588 -5.83884 22435 ft 410 kts 351°
2026-05-07 20:36 42.67407 -5.84397 21911 ft 408 kts 351°
2026-05-07 20:37 42.70219 -5.84910 21363 ft 406 kts 351°
2026-05-07 20:37 42.73010 -5.85422 20801 ft 404 kts 351°
2026-05-07 20:37 42.75795 -5.85932 20246 ft 403 kts 351°
2026-05-07 20:37 42.78567 -5.86436 19710 ft 402 kts 351°
2026-05-07 20:38 42.81332 -5.86939 19178 ft 400 kts 351°
2026-05-07 20:38 42.84094 -5.87445 18658 ft 399 kts 351°
2026-05-07 20:38 42.86841 -5.87951 18130 ft 398 kts 351°
2026-05-07 20:38 42.89588 -5.88437 17541 ft 397 kts 352°
2026-05-07 20:39 42.92323 -5.88898 16960 ft 395 kts 352°
2026-05-07 20:39 42.95049 -5.89349 16390 ft 394 kts 352°
2026-05-07 20:39 42.97763 -5.89800 15825 ft 392 kts 352°
2026-05-07 20:39 43.00460 -5.90248 15272 ft 389 kts 352°
2026-05-07 20:40 43.03144 -5.90619 14735 ft 387 kts 357°
2026-05-07 20:40 43.05819 -5.90352 14195 ft 385 kts
2026-05-07 20:40 43.08382 -5.89326 13668 ft 383 kts 22°
2026-05-07 20:40 43.10733 -5.87649 13074 ft 380 kts 30°
2026-05-07 20:41 43.12982 -5.85879 12616 ft 363 kts 30°
2026-05-07 20:41 43.15124 -5.84210 12228 ft 346 kts 30°
2026-05-07 20:41 43.17169 -5.82619 11842 ft 331 kts 30°
2026-05-07 20:41 43.19132 -5.81091 11466 ft 319 kts 30°
2026-05-07 20:42 43.21018 -5.79617 11134 ft 306 kts 30°
2026-05-07 20:42 43.22828 -5.78197 10838 ft 294 kts 30°
2026-05-07 20:42 43.24567 -5.76829 10543 ft 283 kts 30°
2026-05-07 20:42 43.26279 -5.75605 10251 ft 275 kts 22°
2026-05-07 20:43 43.28086 -5.74753 9963 ft 274 kts 18°
2026-05-07 20:43 43.29886 -5.73934 9662 ft 272 kts 19°
2026-05-07 20:43 43.31673 -5.73114 9331 ft 270 kts 18°
2026-05-07 20:43 43.33445 -5.72302 9026 ft 267 kts 19°
2026-05-07 20:44 43.35204 -5.71495 8708 ft 265 kts 19°
2026-05-07 20:44 43.36938 -5.70702 8404 ft 262 kts 19°
2026-05-07 20:44 43.38655 -5.69920 8085 ft 259 kts 19°
2026-05-07 20:44 43.40361 -5.69141 7735 ft 257 kts 19°
2026-05-07 20:45 43.42058 -5.68361 7374 ft 258 kts 19°
2026-05-07 20:45 43.43761 -5.67578 6999 ft 258 kts 19°
2026-05-07 20:45 43.45493 -5.66980 6636 ft 258 kts
2026-05-07 20:45 43.47194 -5.67644 6306 ft 258 kts 325°
2026-05-07 20:46 43.48290 -5.69544 5944 ft 256 kts 294°
2026-05-07 20:46 43.48865 -5.71858 5565 ft 256 kts 286°
2026-05-07 20:46 43.49382 -5.74196 5197 ft 255 kts 287°
2026-05-07 20:46 43.49928 -5.76510 4754 ft 252 kts 288°
2026-05-07 20:47 43.50474 -5.78779 4275 ft 248 kts 288°
2026-05-07 20:47 43.51018 -5.81045 3696 ft 246 kts 288°
2026-05-07 20:47 43.51540 -5.83227 3281 ft 233 kts 288°
2026-05-07 20:47 43.52032 -5.85284 2971 ft 219 kts 288°
2026-05-07 20:48 43.52495 -5.87221 2686 ft 207 kts 288°
2026-05-07 20:48 43.52934 -5.89060 2419 ft 197 kts 287°
2026-05-07 20:48 43.53354 -5.90824 2159 ft 189 kts 287°
2026-05-07 20:48 43.53745 -5.92462 1913 ft 176 kts 287°
2026-05-07 20:49 43.54114 -5.94014 1687 ft 165 kts 287°
2026-05-07 20:49 43.54463 -5.95482 1471 ft 156 kts 287°
2026-05-07 20:49 43.54790 -5.96855 1269 ft 147 kts 287°
2026-05-07 20:49 43.55102 -5.98171 1058 ft 141 kts 287°
2026-05-07 20:50 43.55402 -5.99432 873 ft 137 kts 287°
2026-05-07 20:50 43.55691 -6.00666 700 ft 134 kts 287°
2026-05-07 20:50 43.55982 -6.01873 494 ft 129 kts 287°
2026-05-07 20:50 43.56238 -6.02985 429 ft 113 kts 287°
2026-05-07 20:51 43.56435 -6.03803 417 ft 68 kts 289°
2026-05-07 20:51 43.56481 -6.04287 418 ft 34 kts 257°
2026-05-07 20:51 43.56405 -6.04324 418 ft 14 kts 130°
2026-05-07 20:51 43.56366 -6.04197 417 ft 15 kts 110°
2026-05-07 20:52 43.56332 -6.04057 417 ft 16 kts 108°
2026-05-07 20:52 43.56297 -6.03906 422 ft 16 kts 108°
2026-05-07 20:52 43.56263 -6.03762 420 ft 16 kts 108°
2026-05-07 20:52 43.56227 -6.03618 422 ft 16 kts 109°
2026-05-07 20:53 43.56193 -6.03476 421 ft 15 kts 108°
2026-05-07 20:53 43.56161 -6.03340 420 ft 15 kts 108°
2026-05-07 20:53 43.56130 -6.03241 419 ft 9 kts 135°
2026-05-07 20:53 43.56066 -6.03223 426 ft 9 kts 153°
2026-05-07 20:54 43.56038 -6.03146 424 ft 6 kts 117°
2026-05-07 20:54 43.56020 -6.03143 426 ft 3 kts 188°
2026-05-07 20:54 43.55999 -6.03152 426 ft 4 kts 197°
2026-05-07 20:54 43.55992 -6.03172 424 ft 3 kts 276°
2026-05-07 20:55 43.55993 -6.03181 424 ft 0 kts 278°